TimeCST,TemperatureF,Dew PointF,Humidity,Sea Level PressureIn,VisibilityMPH,Wind Direction,Wind SpeedMPH,Gust SpeedMPH,PrecipitationIn,Events,Conditions,WindDirDegrees,DateUTC
12:52 AM,41.0,33.1,73,30.18,7.0,Calm,Calm,-,N/A,,Overcast,0,2012-11-05 06:52:00
1:52 AM,39.9,33.1,77,30.18,7.0,East,6.9,-,N/A,,Overcast,100,2012-11-05 07:52:00
2:52 AM,37.9,33.1,83,30.18,7.0,East,8.1,-,N/A,,Mostly Cloudy,100,2012-11-05 08:52:00
3:52 AM,36.0,30.9,82,30.17,6.0,ESE,6.9,-,N/A,,Haze,110,2012-11-05 09:52:00
4:52 AM,37.0,30.9,79,30.17,7.0,ESE,8.1,-,N/A,,Scattered Clouds,110,2012-11-05 10:52:00
5:52 AM,36.0,30.0,79,30.17,7.0,ESE,8.1,-,N/A,,Overcast,110,2012-11-05 11:52:00
6:52 AM,37.0,32.0,82,30.17,5.0,ESE,6.9,-,N/A,,Haze,110,2012-11-05 12:52:00
7:52 AM,37.9,32.0,79,30.19,7.0,East,9.2,-,N/A,,Overcast,90,2012-11-05 13:52:00
8:52 AM,39.0,33.1,79,30.19,8.0,East,9.2,-,N/A,,Clear,100,2012-11-05 14:52:00
9:52 AM,43.0,33.1,68,30.20,10.0,East,11.5,-,N/A,,Clear,90,2012-11-05 15:52:00
10:52 AM,45.0,32.0,60,30.20,10.0,East,12.7,-,N/A,,Clear,100,2012-11-05 16:52:00
11:52 AM,44.1,30.0,58,30.18,10.0,East,12.7,-,N/A,,Partly Cloudy,100,2012-11-05 17:52:00
12:52 PM,44.1,30.9,60,30.17,10.0,East,8.1,-,N/A,,Clear,80,2012-11-05 18:52:00
1:52 PM,46.0,30.0,54,30.15,10.0,East,8.1,-,N/A,,Mostly Cloudy,80,2012-11-05 19:52:00
2:52 PM,46.9,28.9,50,30.14,10.0,SE,8.1,-,N/A,,Overcast,140,2012-11-05 20:52:00
3:52 PM,45.0,28.9,53,30.14,10.0,East,6.9,-,N/A,,Clear,100,2012-11-05 21:52:00
4:52 PM,42.1,30.0,62,30.15,10.0,East,3.5,-,N/A,,Mostly Cloudy,100,2012-11-05 22:52:00
5:52 PM,43.0,30.9,62,30.16,10.0,ESE,4.6,-,N/A,,Overcast,110,2012-11-05 23:52:00
6:52 PM,39.0,28.9,67,30.16,10.0,ESE,6.9,-,N/A,,Overcast,110,2012-11-06 00:52:00
7:52 PM,35.1,28.0,76,30.16,9.0,ESE,5.8,-,0.00,Snow,Light Snow,110,2012-11-06 01:52:00
8:52 PM,33.1,27.0,78,30.15,9.0,SE,5.8,-,0.00,,Clear,130,2012-11-06 02:52:00
9:52 PM,33.1,26.1,75,30.15,8.0,ESE,4.6,-,N/A,,Scattered Clouds,120,2012-11-06 03:52:00
11:52 PM,37.0,30.0,76,30.12,7.0,SE,5.8,-,N/A,,Overcast,140,2012-11-06 05:52:00